SCP
0 0 0 0 0 -0 0 -0 0 0 0 0 0 0 0 0 0 0 0 0 0 -0 -0 -0 -0 -0 -0 -0 -0 0 0 0
0 0 0 0 0 0 0 -0 0 0 0 0 0 0 0 0 0 -0 0 -0 -0 -0 -0 -0 -0 -0 -0 -0 -0 0 0 0
0 0 0 0 0 0 -0 0 0 0 0 0 0 0 0 0 0 0 0 0 0 -0 -0 -0 -0 -0 -0 -0 -0 0 0 0
0 0 0 0 0 -0 -0 0 0 0 0 0 0 0 0 0 0 0 0 0 0 0 0 -0 -0 -0 -0 -0 0 0 0 0
0 0 0 0 0 0 0 0 0 0 0 0 0 0 0 0 0 0 0 0 0 0 0 0 -0 -0 -0 -0 0 0 0 0
0 0 0 0 0 0 0 0 0 0 0 0 0 0 0 0 0 0 1 0 0 0 0 0 0 0 0 0 0 0 0 0
0 0 0 0 0 0 0 0 0 0 -0 0 0 0 0 0 0 1 1 1 0 0 0 0 0 0 0 0 0 0 0 0
0 0 -0 0 0 0 0 0 0 0 0 0 0 0 0 0 0 0 1 1 0 0 0 0 0 0 0 0 0 0 0 0
0 0 0 0 0 -0 0 0 0 0 0 0 0 0 0 0 0 0 1 1 1 1 0 0 0 0 0 0 0 0 0 0
0 0 0 0 0 0 0 0 0 0 -0 0 0 0 0 0 0 0 0 1 2 1 0 0 0 0 0 0 0 0 0 0
0 0 0 0 0 0 0 0 0 -0 -0 0 0 0 0 0 0 0 0 1 2 1 0 0 0 0 0 0 0 0 0 0
0 0 0 0 0 0 0 0 0 0 -0 -0 0 0 0 0 0 0 0 0 0 0 0 0 0 0 1 1 1 0 0 0
0 0 0 0 0 0 0 0 0 0 0 0 -0 0 0 0 0 0 0 0 0 0 0 4 1 1 2 2 1 1 1 1
0 0 0 0 0 0 0 0 0 0 0 -0 0 0 0 0 0 0 0 0 0 0 1 1 1 1 1 2 4 3 2 2
0 0 0 0 0 -0 0 0 0 0 0 0 0 0 0 0 0 0 0 0 0 1 3 2 3 3 2 2 2 2 2 2
0 0 0 0 0 0 0 0 0 0 0 0 0 0 0 0 0 0 0 0 0 1 5 4 5 4 4 3 3 3 2 2
0 0 0 0 0 0 0 0 0 0 0 0 0 0 0 0 0 0 1 1 1 1 4 3 1 4 4 3 1 1 1 1
0 0 0 0 0 0 0 0 0 0 0 0 0 0 0 0 0 0 0 0 1 0 1 1 1 0 0 0 0 0 0 1
0 0 0 0 0 0 0 0 0 0 0 0 0 0 0 0 0 0 0 0 0 0 0 1 1 1 1 1 1 1 2 2
0 0 0 0 0 0 0 0 0 0 0 0 0 0 0 0 0 0 0 0 0 0 0 0 0 1 1 1 1 0 2 5
Wind_Speed_500mb
7 7 17 13 15 22 38 72 21 10 15 2 22 57 76 56 58 69 69 67 61 56 50 47 46 43 40 39 35 32 29 26
0 21 26 43 34 36 38 33 26 18 8 20 41 66 58 69 62 71 67 65 60 55 49 45 42 40 39 36 34 32 29 27
8 21 30 36 47 45 30 31 21 15 7 31 49 51 60 68 62 73 69 66 61 55 49 45 41 39 37 37 35 32 31 29
11 25 34 36 50 32 29 42 19 17 15 17 52 57 74 63 63 72 74 69 62 56 50 46 42 39 37 37 36 35 33 32
17 30 35 35 59 19 20 23 28 22 1 33 59 57 65 64 67 73 71 70 64 58 52 47 44 41 38 37 37 37 36 35
30 29 39 43 47 53 29 32 47 38 13 9 48 52 66 68 68 71 70 68 65 61 56 52 48 44 41 39 39 39 39 39
38 36 34 47 30 57 49 39 48 40 17 21 35 62 62 56 62 55 53 65 65 62 59 53 50 46 43 42 41 42 44 45
27 30 34 42 38 49 36 28 37 38 6 5 41 46 60 65 70 71 58 52 61 59 58 55 52 49 45 45 43 45 47 47
39 50 62 56 53 57 41 19 43 36 39 19 27 44 44 59 57 81 67 56 62 59 54 53 53 52 51 49 48 48 51 50
54 61 67 50 64 52 49 47 59 62 52 53 39 43 53 52 65 84 76 69 61 57 52 45 45 44 42 42 38 38 39 43
60 59 64 72 61 51 62 66 69 60 54 54 50 40 42 42 26 23 46 72 76 62 42 30 40 39 38 37 38 38 41 41
54 56 61 48 54 56 70 67 71 70 56 51 50 46 23 22 21 6 37 43 76 56 43 37 45 38 35 36 40 45 46 42
34 41 30 34 39 57 70 61 59 69 78 69 54 56 56 56 44 37 30 49 48 45 58 78 62 45 37 39 45 49 46 42
2 19 40 27 53 45 50 64 66 53 73 86 66 68 61 59 67 67 55 40 27 22 41 53 61 47 42 42 50 59 59 55
32 27 25 21 50 48 62 54 51 68 69 71 89 70 74 63 62 65 49 46 63 58 55 46 54 46 40 40 46 55 55 55
23 11 15 26 39 34 51 62 62 61 61 68 77 89 75 83 67 60 63 52 56 60 58 55 54 40 46 44 48 51 53 55
29 22 26 25 36 40 37 47 44 68 70 66 69 86 88 75 77 76 73 69 64 59 57 60 56 61 65 64 59 58 59 64
20 20 28 25 38 39 35 37 51 55 64 76 79 72 76 69 73 76 82 76 74 71 69 65 58 52 60 62 67 68 70 63
29 21 28 18 33 44 42 41 55 64 63 66 87 87 80 78 86 65 84 89 81 76 73 72 62 54 56 68 76 71 65 50
33 24 19 7 32 24 34 43 31 48 59 68 65 50 89 87 97 92 71 76 81 68 58 63 63 59 58 63 74 70 59 53
Wind_Direction_500mb
169 210 232 248 253 284 284 298 102 86 75 28 121 132 149 160 163 166 160 151 151 155 160 164 167 167 169 170 172 173 174 177
286 259 263 243 276 285 290 299 111 125 103 86 142 145 164 165 165 167 162 155 158 160 166 169 173 178 180 182 184 185 189 194
254 254 262 268 270 285 313 314 145 153 169 122 152 158 165 169 169 169 165 163 165 166 173 175 178 184 188 194 198 200 203 208
256 260 264 276 285 314 311 329 289 167 198 175 153 163 172 179 176 173 170 170 173 174 181 183 185 191 195 201 207 210 213 219
258 276 289 289 292 297 298 332 325 322 326 148 155 168 171 178 175 176 177 174 177 181 185 191 193 196 202 209 215 218 222 227
257 265 266 276 293 305 308 301 310 341 9 59 167 173 175 176 174 177 183 181 182 187 190 195 199 201 205 214 221 225 228 233
244 250 266 275 285 301 302 294 294 299 74 40 186 170 167 162 171 181 186 189 190 193 195 197 205 205 210 216 223 230 233 235
248 257 270 287 298 297 321 327 314 308 263 140 126 159 171 168 175 188 190 199 195 197 200 200 210 212 218 224 229 235 240 241
259 259 269 279 290 308 315 303 285 296 332 199 196 189 194 185 192 194 196 197 202 204 208 208 216 219 223 229 235 242 248 253
249 261 274 276 289 290 294 288 286 275 296 303 313 203 212 200 216 197 202 204 200 205 207 213 219 223 226 228 234 243 253 256
255 256 259 272 272 275 279 281 286 286 279 291 301 244 194 222 215 194 174 197 197 199 202 233 237 238 241 246 256 260 257 257
264 253 252 251 269 277 268 269 272 277 283 284 289 292 192 230 228 286 173 157 191 187 207 233 241 237 243 249 256 258 258 261
277 275 271 282 271 248 262 269 261 263 269 273 275 283 277 251 239 249 221 243 195 211 232 232 230 227 236 251 255 252 252 257
267 267 274 254 268 264 269 258 261 260 250 267 260 263 277 237 246 228 228 226 220 202 201 212 214 220 229 245 250 245 246 250
282 267 273 237 253 260 263 262 261 256 257 250 261 258 262 269 255 235 228 232 229 227 200 209 221 231 245 244 240 243 245 247
264 277 283 277 271 278 260 248 251 257 245 244 241 258 262 262 261 262 241 236 220 210 210 212 223 229 240 244 246 249 254 259
300 333 327 299 292 295 301 301 282 246 248 254 247 248 255 260 258 258 258 233 228 224 228 225 225 234 244 249 256 259 263 265
299 310 293 304 296 295 294 290 294 289 261 239 244 245 236 241 256 257 252 235 228 231 230 233 234 240 242 247 252 260 265 266
286 287 276 291 283 292 292 283 286 289 280 268 239 236 239 246 247 262 260 239 226 218 221 235 243 236 241 246 254 257 257 256
305 299 278 253 283 269 289 291 290 287 292 282 276 273 240 239 243 244 252 235 223 222 225 239 244 244 246 253 255 255 255 251
Wind_Speed_850mb
7 7 17 13 15 22 38 72 21 10 15 2 22 57 76 56 58 69 69 67 61 56 50 47 46 43 40 39 35 32 29 26
0 21 26 43 34 36 38 33 26 18 8 20 41 66 58 69 62 71 67 65 60 55 49 45 42 40 39 36 34 32 29 27
8 21 30 36 47 45 30 31 21 15 7 31 49 51 60 68 62 73 69 66 61 55 49 45 41 39 37 37 35 32 31 29
11 25 34 36 50 32 29 42 19 17 15 17 52 57 74 63 63 72 74 69 62 56 50 46 42 39 37 37 36 35 33 32
17 30 35 35 59 19 20 23 28 22 1 33 59 57 65 64 67 73 71 70 64 58 52 47 44 41 38 37 37 37 36 35
30 29 39 43 47 53 29 32 47 38 13 9 48 52 66 68 68 71 70 68 65 61 56 52 48 44 41 39 39 39 39 39
38 36 34 47 30 57 49 39 48 40 17 21 35 62 62 56 62 55 53 65 65 62 59 53 50 46 43 42 41 42 44 45
27 30 34 42 38 49 36 28 37 38 6 5 41 46 60 65 70 71 58 52 61 59 58 55 52 49 45 45 43 45 47 47
39 50 62 56 53 57 41 19 43 36 39 19 27 44 44 59 57 81 67 56 62 59 54 53 53 52 51 49 48 48 51 50
54 61 67 50 64 52 49 47 59 62 52 53 39 43 53 52 65 84 76 69 61 57 52 45 45 44 42 42 38 38 39 43
60 59 64 72 61 51 62 66 69 60 54 54 50 40 42 42 26 23 46 72 76 62 42 30 40 39 38 37 38 38 41 41
54 56 61 48 54 56 70 67 71 70 56 51 50 46 23 22 21 6 37 43 76 56 43 37 45 38 35 36 40 45 46 42
34 41 30 34 39 57 70 61 59 69 78 69 54 56 56 56 44 37 30 49 48 45 58 78 62 45 37 39 45 49 46 42
2 19 40 27 53 45 50 64 66 53 73 86 66 68 61 59 67 67 55 40 27 22 41 53 61 47 42 42 50 59 59 55
32 27 25 21 50 48 62 54 51 68 69 71 89 70 74 63 62 65 49 46 63 58 55 46 54 46 40 40 46 55 55 55
23 11 15 26 39 34 51 62 62 61 61 68 77 89 75 83 67 60 63 52 56 60 58 55 54 40 46 44 48 51 53 55
29 22 26 25 36 40 37 47 44 68 70 66 69 86 88 75 77 76 73 69 64 59 57 60 56 61 65 64 59 58 59 64
20 20 28 25 38 39 35 37 51 55 64 76 79 72 76 69 73 76 82 76 74 71 69 65 58 52 60 62 67 68 70 63
29 21 28 18 33 44 42 41 55 64 63 66 87 87 80 78 86 65 84 89 81 76 73 72 62 54 56 68 76 71 65 50
33 24 19 7 32 24 34 43 31 48 59 68 65 50 89 87 97 92 71 76 81 68 58 63 63 59 58 63 74 70 59 53
Wind_Direction_850mb
169 210 232 248 253 284 284 298 102 86 75 28 121 132 149 160 163 166 160 151 151 155 160 164 167 167 169 170 172 173 174 177
286 259 263 243 276 285 290 299 111 125 103 86 142 145 164 165 165 167 162 155 158 160 166 169 173 178 180 182 184 185 189 194
254 254 262 268 270 285 313 314 145 153 169 122 152 158 165 169 169 169 165 163 165 166 173 175 178 184 188 194 198 200 203 208
256 260 264 276 285 314 311 329 289 167 198 175 153 163 172 179 176 173 170 170 173 174 181 183 185 191 195 201 207 210 213 219
258 276 289 289 292 297 298 332 325 322 326 148 155 168 171 178 175 176 177 174 177 181 185 191 193 196 202 209 215 218 222 227
257 265 266 276 293 305 308 301 310 341 9 59 167 173 175 176 174 177 183 181 182 187 190 195 199 201 205 214 221 225 228 233
244 250 266 275 285 301 302 294 294 299 74 40 186 170 167 162 171 181 186 189 190 193 195 197 205 205 210 216 223 230 233 235
248 257 270 287 298 297 321 327 314 308 263 140 126 159 171 168 175 188 190 199 195 197 200 200 210 212 218 224 229 235 240 241
259 259 269 279 290 308 315 303 285 296 332 199 196 189 194 185 192 194 196 197 202 204 208 208 216 219 223 229 235 242 248 253
249 261 274 276 289 290 294 288 286 275 296 303 313 203 212 200 216 197 202 204 200 205 207 213 219 223 226 228 234 243 253 256
255 256 259 272 272 275 279 281 286 286 279 291 301 244 194 222 215 194 174 197 197 199 202 233 237 238 241 246 256 260 257 257
264 253 252 251 269 277 268 269 272 277 283 284 289 292 192 230 228 286 173 157 191 187 207 233 241 237 243 249 256 258 258 261
277 275 271 282 271 248 262 269 261 263 269 273 275 283 277 251 239 249 221 243 195 211 232 232 230 227 236 251 255 252 252 257
267 267 274 254 268 264 269 258 261 260 250 267 260 263 277 237 246 228 228 226 220 202 201 212 214 220 229 245 250 245 246 250
282 267 273 237 253 260 263 262 261 256 257 250 261 258 262 269 255 235 228 232 229 227 200 209 221 231 245 244 240 243 245 247
264 277 283 277 271 278 260 248 251 257 245 244 241 258 262 262 261 262 241 236 220 210 210 212 223 229 240 244 246 249 254 259
300 333 327 299 292 295 301 301 282 246 248 254 247 248 255 260 258 258 258 233 228 224 228 225 225 234 244 249 256 259 263 265
299 310 293 304 296 295 294 290 294 289 261 239 244 245 236 241 256 257 252 235 228 231 230 233 234 240 242 247 252 260 265 266
286 287 276 291 283 292 292 283 286 289 280 268 239 236 239 246 247 262 260 239 226 218 221 235 243 236 241 246 254 257 257 256
305 299 278 253 283 269 289 291 290 287 292 282 276 273 240 239 243 244 252 235 223 222 225 239 244 244 246 253 255 255 255 251